User: anonymous   Login
Location: Unspecified
(0.0000°N, 0.0000°E)
Time: 16:37:40
(UTC+00:00)
Language:

UFO 11 (USA 174) - Orbit

View from above orbital plane
View from above orbital plane
View from above satellite
View from above satellite

Ground track
Ground track

The orbit data is extracted from the following two-line orbital elements,

1 28117U 03057A   17051.47050365 0.00000000  00000-0  00000-0 0    01
2 28117   4.8559  35.2868 0004735 185.2865 174.7214  1.00270000    04
Epoch (UTC): 20 February 2017 11:17:31
Eccentricity: 0.0004735
inclination: 4.8559°
perigee height: 35767 km
apogee height: 35806 km
right ascension of ascending node: 35.2868°
argument of perigee: 185.2865°
revolutions per day: 1.00270000
mean anomaly at epoch: 174.7214°
orbit number at epoch: 0

The dashed part of the orbit path shows where the satellite is in the earth's shadow,  

DLR